CST,Max TemperatureF,Mean TemperatureF,Min TemperatureF,Max Dew PointF,MeanDew PointF,Min DewpointF,Max Humidity, Mean Humidity, Min Humidity, Max Sea Level PressureIn, Mean Sea Level PressureIn, Min Sea Level PressureIn, Max VisibilityMiles, Mean VisibilityMiles, Min VisibilityMiles, Max Wind SpeedMPH, Mean Wind SpeedMPH, Max Gust SpeedMPH,PrecipitationIn, CloudCover, Events, WindDirDegrees
2012-11-1,54,44,33,31,24,16,60,46,30,29.93,29.88,29.85,10,10,10,16,8,22,0.00,6,,320
2012-11-2,48,40,32,32,29,27,81,68,48,30.19,30.10,29.94,10,10,10,14,6,20,0.00,1,,340
2012-11-3,45,39,33,36,32,30,82,73,60,30.25,30.21,30.16,10,10,10,12,5,16,T,7,,17
2012-11-4,48,39,30,34,29,26,89,75,44,30.27,30.24,30.21,10,9,7,13,4,15,0.00,1,,342
2012-11-5,44,38,31,33,30,27,88,73,58,30.23,30.20,30.15,10,10,9,10,3,15,T,7,Rain,64
2012-11-6,42,36,30,38,34,27,96,85,60,30.13,29.97,29.90,10,5,2,13,5,15,0.14,7,Rain,169
2012-11-7,47,43,39,40,38,37,100,87,71,30.19,30.05,29.91,7,4,2,6,2,8,0.02,8,Rain,75
2012-11-8,45,41,36,40,36,32,92,80,63,30.24,30.18,30.12,9,5,2,13,5,17,0.00,5,,199
2012-11-9,55,44,32,47,39,31,100,81,62,30.14,30.07,30.01,7,5,2,9,3,12,0.00,4,,123
2012-11-10,66,58,49,55,50,46,89,74,56,30.02,29.94,29.87,10,8,4,25,10,36,0.03,3,Rain-Thunderstorm,183
2012-11-11,69,55,40,55,49,37,94,78,54,29.95,29.87,29.75,10,8,4,36,18,49,0.29,6,Rain,207
2012-11-12,40,34,28,36,24,17,93,70,54,30.38,30.14,29.94,10,9,2,22,13,31,T,6,Rain-Snow,268
2012-11-13,40,32,23,23,19,15,81,63,43,30.53,30.49,30.39,10,10,10,14,3,18,0.00,0,,266
2012-11-14,46,36,26,25,24,21,82,66,44,30.55,30.49,30.41,10,10,8,14,5,17,0.00,2,,173
2012-11-15,47,37,26,30,27,24,89,71,46,30.43,30.39,30.35,9,7,4,9,3,12,0.00,0,,183
2012-11-16,55,41,26,39,30,24,100,83,40,30.51,30.48,30.40,9,4,0,10,1,15,0.00,0,Fog,148
2012-11-17,54,39,24,36,29,24,100,80,38,30.59,30.52,30.47,8,4,2,13,3,16,0.00,0,,158
2012-11-18,56,42,28,34,31,26,96,69,42,30.48,30.42,30.34,10,7,3,10,3,13,0.00,0,,165
2012-11-19,59,48,36,44,36,32,83,65,44,30.33,30.23,30.13,10,8,4,14,6,18,0.04,3,Rain,179
2012-11-20,57,46,35,46,40,36,100,88,67,30.21,30.15,30.09,7,3,0,9,2,12,0.00,4,Fog,321
2012-11-21,55,44,32,46,39,32,100,91,69,30.26,30.20,30.10,6,2,0,13,5,16,0.01,2,Fog,194
2012-11-22,64,53,42,51,44,33,86,74,52,30.09,29.91,29.78,10,7,3,26,15,33,0.15,2,Rain,205
2012-11-23,42,35,27,30,20,16,70,61,52,30.25,30.07,29.89,10,10,10,30,18,41,0.00,6,,294
2012-11-24,32,29,25,20,17,14,67,62,56,30.29,30.20,30.01,10,10,10,18,8,24,0.00,5,,270
2012-11-25,42,35,28,24,23,21,75,62,47,30.10,29.95,29.89,10,10,9,15,6,18,0.00,1,,271
2012-11-26,36,29,21,23,17,10,75,59,48,30.42,30.28,30.11,10,10,10,13,7,18,0.00,2,,329
2012-11-27,33,25,16,14,10,7,71,52,38,30.45,30.36,30.28,10,10,10,12,6,16,0.00,2,,264
2012-11-28,44,36,27,23,19,15,72,55,37,30.40,30.34,30.27,10,10,10,13,5,17,0.00,1,,249
2012-11-29,50,40,30,34,29,25,75,62,46,30.29,30.19,30.12,10,9,7,14,7,18,0.00,2,,184
2012-11-30,49,42,34,37,34,32,96,77,56,30.19,30.13,30.09,10,7,2,13,4,16,0.00,3,,59